Time,TemperatureF,DewpointF,PressureIn,WindDirection,WindDirectionDegrees,WindSpeedMPH,WindSpeedGustMPH,Humidity,HourlyPrecipIn,Conditions,Clouds,dailyrainin,SoftwareType,DateUTC
2013-04-30 00:01:00,55.8,55.5,29.98,West,270,0.0,0.0,99,0.00,RA,,0.00,WeatherDisplay:10.37,2013-04-30 04:01:00,
2013-04-30 00:06:00,55.8,55.5,29.99,West,270,0.0,0.0,99,0.00,RA,,0.00,WeatherDisplay:10.37,2013-04-30 04:06:00,
2013-04-30 00:11:00,55.4,55.1,29.99,West,270,0.0,0.0,99,0.00,CLR,,0.00,WeatherDisplay:10.37,2013-04-30 04:11:00,
2013-04-30 00:16:00,55.2,54.4,29.99,West,270,0.0,0.0,97,0.00,CLR,,0.00,WeatherDisplay:10.37,2013-04-30 04:16:00,
2013-04-30 00:21:00,55.2,54.4,29.99,West,270,0.0,0.0,97,0.00,CLR,,0.00,WeatherDisplay:10.37,2013-04-30 04:21:00,
2013-04-30 00:26:00,55.2,54.4,29.99,West,270,0.0,0.0,97,0.00,CLR,,0.00,WeatherDisplay:10.37,2013-04-30 04:26:00,
2013-04-30 00:31:00,55.0,54.2,29.99,West,270,0.0,0.0,97,0.00,CLR,,0.00,WeatherDisplay:10.37,2013-04-30 04:31:00,
2013-04-30 00:36:00,54.9,54.0,29.99,West,270,0.0,0.0,97,0.00,CLR,,0.00,WeatherDisplay:10.37,2013-04-30 04:36:00,
2013-04-30 00:41:00,54.7,53.8,29.99,West,270,0.0,0.0,97,0.00,CLR,,0.00,WeatherDisplay:10.37,2013-04-30 04:41:00,
2013-04-30 00:46:00,54.7,53.8,29.99,West,270,0.0,0.0,97,0.00,CLR,,0.00,WeatherDisplay:10.37,2013-04-30 04:46:00,
2013-04-30 00:51:00,54.5,53.7,29.99,West,270,0.0,0.0,97,0.00,CLR,,0.00,WeatherDisplay:10.37,2013-04-30 04:51:00,
2013-04-30 00:56:00,54.3,53.5,29.99,West,270,0.0,0.0,97,0.00,CLR,,0.00,WeatherDisplay:10.37,2013-04-30 04:56:00,
2013-04-30 01:01:00,54.3,53.5,29.99,West,270,0.0,0.0,97,0.00,CLR,,0.00,WeatherDisplay:10.37,2013-04-30 05:01:00,
2013-04-30 01:06:00,54.3,53.5,29.99,West,270,0.0,0.0,97,0.00,CLR,,0.00,WeatherDisplay:10.37,2013-04-30 05:06:00,
2013-04-30 01:11:00,54.3,53.5,29.99,West,270,0.0,0.0,97,0.00,CLR,,0.00,WeatherDisplay:10.37,2013-04-30 05:11:00,
2013-04-30 01:16:00,54.1,53.3,29.99,West,270,0.0,0.0,97,0.00,CLR,,0.00,WeatherDisplay:10.37,2013-04-30 05:16:00,
2013-04-30 01:21:00,54.1,53.3,29.99,West,270,0.0,0.0,97,0.00,CLR,,0.00,WeatherDisplay:10.37,2013-04-30 05:21:00,
2013-04-30 01:26:00,54.1,53.3,29.99,West,270,0.0,0.0,97,0.00,CLR,,0.00,WeatherDisplay:10.37,2013-04-30 05:26:00,
2013-04-30 01:31:00,54.0,53.1,29.99,West,270,0.0,0.0,97,0.00,CLR,,0.00,WeatherDisplay:10.37,2013-04-30 05:31:00,
2013-04-30 01:36:00,53.8,52.9,29.99,West,270,0.0,0.0,97,0.00,CLR,,0.00,WeatherDisplay:10.37,2013-04-30 05:36:00,
2013-04-30 01:41:00,53.8,52.9,29.99,West,270,0.0,0.0,97,0.00,CLR,,0.00,WeatherDisplay:10.37,2013-04-30 05:41:00,
2013-04-30 01:46:00,53.8,52.9,29.98,West,270,0.0,0.0,97,0.00,CLR,,0.00,WeatherDisplay:10.37,2013-04-30 05:46:00,
2013-04-30 01:51:00,53.8,52.9,29.98,West,270,0.0,0.0,97,0.00,CLR,,0.00,WeatherDisplay:10.37,2013-04-30 05:51:00,
2013-04-30 01:56:00,53.8,52.9,29.98,West,270,0.0,0.0,97,0.00,CLR,,0.00,WeatherDisplay:10.37,2013-04-30 05:56:00,
2013-04-30 02:01:00,53.8,52.9,29.98,West,270,0.0,0.0,97,0.00,CLR,,0.00,WeatherDisplay:10.37,2013-04-30 06:01:00,
2013-04-30 02:06:00,53.8,52.9,29.98,West,270,0.0,0.0,97,0.00,CLR,,0.00,WeatherDisplay:10.37,2013-04-30 06:06:00,
2013-04-30 02:11:00,53.6,52.8,29.98,West,270,0.0,0.0,97,0.00,CLR,,0.00,WeatherDisplay:10.37,2013-04-30 06:11:00,
2013-04-30 02:16:00,53.2,52.7,29.98,West,270,0.0,0.0,98,0.00,CLR,,0.00,WeatherDisplay:10.37,2013-04-30 06:16:00,
2013-04-30 02:21:00,53.2,52.7,29.98,West,270,0.0,0.0,98,0.00,CLR,,0.00,WeatherDisplay:10.37,2013-04-30 06:21:00,
2013-04-30 02:26:00,53.1,52.5,29.97,West,270,0.0,0.0,98,0.00,CLR,,0.00,WeatherDisplay:10.37,2013-04-30 06:26:00,
2013-04-30 02:31:00,53.1,52.5,29.97,West,270,0.0,0.0,98,0.00,CLR,,0.00,WeatherDisplay:10.37,2013-04-30 06:31:00,
2013-04-30 02:36:00,53.1,52.5,29.98,West,270,0.0,0.0,98,0.00,CLR,,0.00,WeatherDisplay:10.37,2013-04-30 06:36:00,
2013-04-30 02:41:00,53.1,52.5,29.97,West,270,0.0,0.0,98,0.00,CLR,,0.00,WeatherDisplay:10.37,2013-04-30 06:41:00,
2013-04-30 02:46:00,53.1,52.5,29.98,West,270,0.0,0.0,98,0.00,CLR,,0.00,WeatherDisplay:10.37,2013-04-30 06:46:00,
2013-04-30 02:51:00,53.1,52.5,29.98,West,270,0.0,0.0,98,0.00,CLR,,0.00,WeatherDisplay:10.37,2013-04-30 06:51:00,
2013-04-30 02:56:00,53.1,52.5,29.97,West,270,0.0,0.0,98,0.00,CLR,,0.00,WeatherDisplay:10.37,2013-04-30 06:56:00,
2013-04-30 03:01:00,53.1,52.5,29.97,West,270,0.0,0.0,98,0.00,CLR,,0.00,WeatherDisplay:10.37,2013-04-30 07:01:00,
2013-04-30 03:06:00,53.1,52.5,29.97,West,270,0.0,0.0,98,0.00,CLR,,0.00,WeatherDisplay:10.37,2013-04-30 07:06:00,
2013-04-30 03:11:00,52.9,52.3,29.97,West,270,0.0,0.0,98,0.00,CLR,,0.00,WeatherDisplay:10.37,2013-04-30 07:11:00,
2013-04-30 03:16:00,52.9,52.3,29.97,West,270,0.0,0.0,98,0.00,CLR,,0.00,WeatherDisplay:10.37,2013-04-30 07:16:00,
2013-04-30 03:21:00,52.9,52.3,29.97,West,270,0.0,0.0,98,0.00,CLR,,0.00,WeatherDisplay:10.37,2013-04-30 07:21:00,
2013-04-30 03:26:00,52.9,52.3,29.97,West,270,0.0,0.0,98,0.00,CLR,,0.00,WeatherDisplay:10.37,2013-04-30 07:26:00,
2013-04-30 03:31:00,52.7,52.2,29.97,West,270,0.0,0.0,98,0.00,CLR,,0.00,WeatherDisplay:10.37,2013-04-30 07:31:00,
2013-04-30 03:36:00,52.5,52.0,29.98,West,270,0.0,0.0,98,0.00,CLR,,0.00,WeatherDisplay:10.37,2013-04-30 07:36:00,
2013-04-30 03:41:00,52.5,52.0,29.98,West,270,0.0,0.0,98,0.00,CLR,,0.00,WeatherDisplay:10.37,2013-04-30 07:41:00,
2013-04-30 03:46:00,52.3,51.8,29.98,West,270,0.0,0.0,98,0.00,CLR,,0.00,WeatherDisplay:10.37,2013-04-30 07:46:00,
2013-04-30 03:51:00,52.2,51.6,29.98,West,270,0.0,0.0,98,0.00,CLR,,0.00,WeatherDisplay:10.37,2013-04-30 07:51:00,
2013-04-30 03:56:00,52.0,51.4,29.98,West,270,0.0,0.0,98,0.00,CLR,,0.00,WeatherDisplay:10.37,2013-04-30 07:56:00,
2013-04-30 04:01:00,52.0,51.4,29.98,West,270,0.0,0.0,98,0.00,CLR,,0.00,WeatherDisplay:10.37,2013-04-30 08:01:00,
2013-04-30 04:06:00,52.0,51.4,29.98,West,270,0.0,0.0,98,0.00,CLR,,0.00,WeatherDisplay:10.37,2013-04-30 08:06:00,
2013-04-30 04:11:00,51.8,51.3,29.99,NW,315,0.0,0.0,98,0.00,CLR,,0.00,WeatherDisplay:10.37,2013-04-30 08:11:00,
2013-04-30 04:16:00,51.6,51.3,29.99,NW,315,0.0,0.0,99,0.00,CLR,,0.00,WeatherDisplay:10.37,2013-04-30 08:16:00,
2013-04-30 04:21:00,51.4,51.2,29.99,NW,315,0.0,0.0,99,0.00,CLR,,0.00,WeatherDisplay:10.37,2013-04-30 08:21:00,
2013-04-30 04:26:00,51.3,51.0,29.99,NW,315,0.0,0.0,99,0.00,CLR,,0.00,WeatherDisplay:10.37,2013-04-30 08:26:00,
2013-04-30 04:31:00,51.3,51.0,29.99,NW,315,0.0,0.0,99,0.00,CLR,,0.00,WeatherDisplay:10.37,2013-04-30 08:31:00,
2013-04-30 04:36:00,51.1,50.8,29.99,NW,315,0.0,0.0,99,0.00,CLR,,0.00,WeatherDisplay:10.37,2013-04-30 08:36:00,
2013-04-30 04:41:00,51.1,50.8,30.00,NW,315,0.0,0.0,99,0.00,CLR,,0.00,WeatherDisplay:10.37,2013-04-30 08:41:00,
2013-04-30 04:46:00,51.1,50.8,30.00,NW,315,0.0,0.0,99,0.00,CLR,,0.00,WeatherDisplay:10.37,2013-04-30 08:46:00,
2013-04-30 04:51:00,50.9,50.6,30.00,NW,315,0.0,0.0,99,0.00,CLR,,0.00,WeatherDisplay:10.37,2013-04-30 08:51:00,
2013-04-30 04:56:00,50.9,50.6,30.00,NW,315,0.0,0.0,99,0.00,CLR,,0.00,WeatherDisplay:10.37,2013-04-30 08:56:00,
2013-04-30 05:01:00,50.7,50.4,30.00,NW,315,0.0,0.0,99,0.00,CLR,,0.00,WeatherDisplay:10.37,2013-04-30 09:01:00,
2013-04-30 05:06:00,50.7,50.4,30.00,NW,315,0.0,0.0,99,0.00,CLR,,0.00,WeatherDisplay:10.37,2013-04-30 09:06:00,
2013-04-30 05:11:00,50.5,50.3,30.00,NW,315,0.0,0.0,99,0.00,CLR,,0.00,WeatherDisplay:10.37,2013-04-30 09:11:00,
2013-04-30 05:16:00,50.5,50.3,30.00,NW,315,0.0,0.0,99,0.00,CLR,,0.00,WeatherDisplay:10.37,2013-04-30 09:16:00,
2013-04-30 05:21:00,50.5,50.3,30.00,NW,315,0.0,0.0,99,0.00,CLR,,0.00,WeatherDisplay:10.37,2013-04-30 09:21:00,
2013-04-30 05:26:00,50.5,50.3,30.00,NW,315,0.0,0.0,99,0.00,CLR,,0.00,WeatherDisplay:10.37,2013-04-30 09:26:00,
2013-04-30 05:31:00,50.5,50.3,30.00,NW,315,0.0,0.0,99,0.00,CLR,,0.00,WeatherDisplay:10.37,2013-04-30 09:31:00,
2013-04-30 05:36:00,50.5,50.3,30.00,NW,315,0.0,0.0,99,0.00,CLR,,0.00,WeatherDisplay:10.37,2013-04-30 09:36:00,
2013-04-30 05:41:00,50.4,50.1,30.00,NW,315,0.0,0.0,99,0.00,CLR,,0.00,WeatherDisplay:10.37,2013-04-30 09:41:00,
2013-04-30 05:46:00,50.4,50.1,30.00,NW,315,0.0,0.0,99,0.00,CLR,,0.00,WeatherDisplay:10.37,2013-04-30 09:46:00,
2013-04-30 05:51:00,50.2,49.9,30.01,NW,315,0.0,0.0,99,0.00,CLR,,0.00,WeatherDisplay:10.37,2013-04-30 09:51:00,
2013-04-30 05:56:00,50.2,49.9,30.01,NW,315,0.0,0.0,99,0.00,CLR,,0.00,WeatherDisplay:10.37,2013-04-30 09:56:00,
2013-04-30 06:01:00,50.0,49.7,30.01,NW,315,0.0,0.0,99,0.00,CLR,,0.00,WeatherDisplay:10.37,2013-04-30 10:01:00,
2013-04-30 06:06:00,50.0,49.7,30.02,NW,315,0.0,0.0,99,0.00,CLR,,0.00,WeatherDisplay:10.37,2013-04-30 10:06:00,
2013-04-30 06:11:00,50.0,49.7,30.02,NW,315,0.0,0.0,99,0.00,CLR,,0.00,WeatherDisplay:10.37,2013-04-30 10:11:00,
2013-04-30 06:16:00,50.0,49.7,30.02,NW,315,0.0,0.0,99,0.00,CLR,,0.00,WeatherDisplay:10.37,2013-04-30 10:16:00,
2013-04-30 06:21:00,50.0,49.7,30.03,NW,315,0.0,0.0,99,0.00,CLR,,0.00,WeatherDisplay:10.37,2013-04-30 10:21:00,
2013-04-30 06:26:00,50.0,49.7,30.03,NW,315,0.0,0.0,99,0.00,CLR,,0.00,WeatherDisplay:10.37,2013-04-30 10:26:00,
2013-04-30 06:31:00,49.8,49.6,30.03,NW,315,0.0,0.0,99,0.00,CLR,,0.00,WeatherDisplay:10.37,2013-04-30 10:31:00,
2013-04-30 06:36:00,49.6,49.4,30.03,NW,315,0.0,0.0,99,0.00,CLR,,0.00,WeatherDisplay:10.37,2013-04-30 10:36:00,
2013-04-30 06:41:00,49.6,49.4,30.03,NW,315,0.0,0.0,99,0.00,CLR,,0.00,WeatherDisplay:10.37,2013-04-30 10:41:00,
2013-04-30 06:46:00,49.6,49.4,30.04,NW,315,0.0,0.0,99,0.00,CLR,,0.00,WeatherDisplay:10.37,2013-04-30 10:46:00,
2013-04-30 06:51:00,49.5,49.2,30.04,NW,315,0.0,0.0,99,0.00,CLR,,0.00,WeatherDisplay:10.37,2013-04-30 10:51:00,
2013-04-30 06:56:00,49.3,49.0,30.04,NW,315,0.0,0.0,99,0.00,CLR,,0.00,WeatherDisplay:10.37,2013-04-30 10:56:00,
2013-04-30 07:01:00,49.1,48.8,30.04,NW,315,0.0,0.0,99,0.00,CLR,,0.00,WeatherDisplay:10.37,2013-04-30 11:01:00,
2013-04-30 07:06:00,48.9,48.7,30.04,NW,315,0.0,0.0,99,0.00,CLR,,0.00,WeatherDisplay:10.37,2013-04-30 11:06:00,
2013-04-30 07:11:00,48.9,48.7,30.04,NW,315,0.0,0.0,99,0.00,CLR,,0.00,WeatherDisplay:10.37,2013-04-30 11:11:00,
2013-04-30 07:16:00,48.9,48.7,30.05,NW,315,0.0,0.0,99,0.00,CLR,,0.00,WeatherDisplay:10.37,2013-04-30 11:16:00,
2013-04-30 07:21:00,48.7,48.5,30.05,NW,315,0.0,0.0,99,0.00,CLR,,0.00,WeatherDisplay:10.37,2013-04-30 11:21:00,
2013-04-30 07:26:00,48.7,48.5,30.06,NW,315,0.0,0.0,99,0.00,CLR,,0.00,WeatherDisplay:10.37,2013-04-30 11:26:00,
2013-04-30 07:31:00,48.9,48.7,30.06,NW,315,0.0,0.0,99,0.00,CLR,,0.00,WeatherDisplay:10.37,2013-04-30 11:31:00,
2013-04-30 07:36:00,48.9,48.7,30.06,NW,315,0.0,0.0,99,0.00,CLR,,0.00,WeatherDisplay:10.37,2013-04-30 11:36:00,
2013-04-30 07:41:00,48.9,48.7,30.06,NW,315,0.0,0.0,99,0.00,CLR,,0.00,WeatherDisplay:10.37,2013-04-30 11:41:00,
2013-04-30 07:46:00,49.3,49.0,30.06,NW,315,0.0,0.0,99,0.00,CLR,,0.00,WeatherDisplay:10.37,2013-04-30 11:46:00,
2013-04-30 07:51:00,49.5,49.2,30.06,NW,315,0.0,0.0,99,0.00,CLR,,0.00,WeatherDisplay:10.37,2013-04-30 11:51:00,
2013-04-30 07:56:00,49.8,49.6,30.06,NW,315,0.0,0.0,99,0.00,CLR,,0.00,WeatherDisplay:10.37,2013-04-30 11:56:00,
2013-04-30 08:01:00,50.0,49.7,30.06,NW,315,0.0,0.0,99,0.00,CLR,,0.00,WeatherDisplay:10.37,2013-04-30 12:01:00,
2013-04-30 08:06:00,50.2,49.9,30.06,NW,315,0.0,0.0,99,0.00,CLR,,0.00,WeatherDisplay:10.37,2013-04-30 12:06:00,
2013-04-30 08:11:00,50.5,50.3,30.06,NW,315,0.0,0.0,99,0.00,CLR,,0.00,WeatherDisplay:10.37,2013-04-30 12:11:00,
2013-04-30 08:16:00,50.9,50.6,30.07,NW,315,0.0,0.0,99,0.00,CLR,,0.00,WeatherDisplay:10.37,2013-04-30 12:16:00,
2013-04-30 08:21:00,51.1,50.8,30.07,NW,315,0.0,0.0,99,0.00,CLR,,0.00,WeatherDisplay:10.37,2013-04-30 12:21:00,
2013-04-30 08:26:00,51.4,51.2,30.07,NW,315,0.0,0.0,99,0.00,CLR,,0.00,WeatherDisplay:10.37,2013-04-30 12:26:00,
2013-04-30 08:31:00,52.0,51.4,30.07,NW,315,0.0,0.0,98,0.00,CLR,,0.00,WeatherDisplay:10.37,2013-04-30 12:31:00,
2013-04-30 08:36:00,52.3,51.8,30.07,NW,315,0.0,0.0,98,0.00,CLR,,0.00,WeatherDisplay:10.37,2013-04-30 12:36:00,
2013-04-30 08:41:00,52.9,52.3,30.08,NW,315,0.0,0.0,98,0.00,CLR,,0.00,WeatherDisplay:10.37,2013-04-30 12:41:00,
2013-04-30 08:46:00,53.2,52.7,30.08,NW,315,0.0,0.0,98,0.00,CLR,,0.00,WeatherDisplay:10.37,2013-04-30 12:46:00,
2013-04-30 08:51:00,53.8,52.9,30.08,NW,315,0.0,0.0,97,0.00,CLR,,0.00,WeatherDisplay:10.37,2013-04-30 12:51:00,
2013-04-30 08:56:00,54.3,53.5,30.08,NW,315,0.0,0.0,97,0.00,CLR,,0.00,WeatherDisplay:10.37,2013-04-30 12:56:00,
2013-04-30 09:01:00,54.9,54.0,30.08,NW,315,0.0,0.0,97,0.00,CLR,,0.00,WeatherDisplay:10.37,2013-04-30 13:01:00,
2013-04-30 09:06:00,55.4,55.1,30.08,NW,315,0.0,0.0,99,0.00,CLR,,0.00,WeatherDisplay:10.37,2013-04-30 13:06:00,
2013-04-30 09:11:00,56.3,56.0,30.08,NE,45,4.6,0.0,99,0.00,CLR,,0.00,WeatherDisplay:10.37,2013-04-30 13:11:00,
2013-04-30 09:16:00,57.2,56.9,30.08,NE,45,0.0,0.0,99,0.00,CLR,,0.00,WeatherDisplay:10.37,2013-04-30 13:16:00,
2013-04-30 09:21:00,57.6,57.3,30.08,NE,45,0.0,0.0,99,0.00,CLR,,0.00,WeatherDisplay:10.37,2013-04-30 13:21:00,
2013-04-30 09:26:00,58.1,57.8,30.08,NE,45,1.1,0.0,99,0.00,CLR,,0.00,WeatherDisplay:10.37,2013-04-30 13:26:00,
2013-04-30 09:31:00,58.6,58.4,30.08,South,180,4.6,4.6,99,0.00,CLR,,0.00,WeatherDisplay:10.37,2013-04-30 13:31:00,
2013-04-30 09:36:00,59.0,58.7,30.08,NE,45,0.0,0.0,99,0.00,CLR,,0.00,WeatherDisplay:10.37,2013-04-30 13:36:00,
2013-04-30 09:41:00,59.5,59.3,30.09,West,270,5.8,0.0,99,0.00,CLR,,0.00,WeatherDisplay:10.37,2013-04-30 13:41:00,
2013-04-30 09:46:00,60.1,59.8,30.09,NW,315,4.6,4.6,99,0.00,CLR,,0.00,WeatherDisplay:10.37,2013-04-30 13:46:00,
2013-04-30 09:51:00,60.6,60.3,30.08,SW,225,2.3,0.0,99,0.00,CLR,,0.00,WeatherDisplay:10.37,2013-04-30 13:51:00,
2013-04-30 09:56:00,61.0,60.4,30.09,West,270,2.3,0.0,98,0.00,CLR,,0.00,WeatherDisplay:10.37,2013-04-30 13:56:00,
2013-04-30 10:01:00,61.5,61.0,30.09,North,0,0.0,0.0,98,0.00,CLR,,0.00,WeatherDisplay:10.37,2013-04-30 14:01:00,
2013-04-30 10:06:00,61.7,61.1,30.09,North,0,1.3,0.0,98,0.00,CLR,,0.00,WeatherDisplay:10.37,2013-04-30 14:06:00,
2013-04-30 10:11:00,62.1,61.5,30.09,WSW,248,2.3,0.0,98,0.00,CLR,,0.00,WeatherDisplay:10.37,2013-04-30 14:11:00,
2013-04-30 10:16:00,62.6,61.7,30.09,North,0,0.0,0.0,97,0.00,CLR,,0.00,WeatherDisplay:10.37,2013-04-30 14:16:00,
2013-04-30 10:21:00,63.0,62.1,30.09,NE,45,0.0,0.0,97,0.00,CLR,,0.00,WeatherDisplay:10.37,2013-04-30 14:21:00,
2013-04-30 10:26:00,63.3,62.5,30.09,NE,45,4.6,0.0,97,0.00,CLR,,0.00,WeatherDisplay:10.37,2013-04-30 14:26:00,
2013-04-30 10:31:00,63.7,62.5,30.08,NW,315,2.3,2.3,96,0.00,CLR,,0.00,WeatherDisplay:10.37,2013-04-30 14:31:00,
2013-04-30 10:36:00,64.2,62.5,30.08,South,180,2.3,2.7,94,0.00,CLR,,0.00,WeatherDisplay:10.37,2013-04-30 14:36:00,
2013-04-30 10:41:00,64.4,62.3,30.08,SW,225,5.7,5.7,93,0.00,CLR,,0.00,WeatherDisplay:10.37,2013-04-30 14:41:00,
2013-04-30 10:46:00,64.8,61.8,30.08,NNW,338,2.3,0.0,90,0.00,CLR,,0.00,WeatherDisplay:10.37,2013-04-30 14:46:00,
2013-04-30 10:51:00,65.3,62.0,30.08,South,180,5.8,5.8,89,0.00,CLR,,0.00,WeatherDisplay:10.37,2013-04-30 14:51:00,
2013-04-30 10:56:00,65.7,62.0,30.08,South,180,2.3,0.0,88,0.00,CLR,,0.00,WeatherDisplay:10.37,2013-04-30 14:56:00,
2013-04-30 11:01:00,66.4,62.1,30.08,SE,135,2.3,2.3,86,0.00,CLR,,0.00,WeatherDisplay:10.37,2013-04-30 15:01:00,
2013-04-30 11:06:00,67.1,62.4,30.08,East,90,4.6,4.6,85,0.00,CLR,,0.00,WeatherDisplay:10.37,2013-04-30 15:06:00,
2013-04-30 11:11:00,67.8,62.5,30.08,NE,45,2.3,0.0,83,0.00,CLR,,0.00,WeatherDisplay:10.37,2013-04-30 15:11:00,
2013-04-30 11:16:00,68.5,62.1,30.08,West,270,4.6,4.6,80,0.00,CLR,,0.00,WeatherDisplay:10.37,2013-04-30 15:16:00,
2013-04-30 11:21:00,69.1,62.3,30.08,West,270,4.6,4.6,79,0.00,CLR,,0.00,WeatherDisplay:10.37,2013-04-30 15:21:00,
2013-04-30 11:26:00,69.3,61.7,30.07,West,270,2.3,2.3,77,0.00,CLR,,0.00,WeatherDisplay:10.37,2013-04-30 15:26:00,
2013-04-30 11:31:00,69.8,62.6,30.08,SW,225,4.6,4.6,78,0.00,CLR,,0.00,WeatherDisplay:10.37,2013-04-30 15:31:00,
2013-04-30 11:36:00,70.7,62.8,30.08,SW,225,2.3,2.3,76,0.00,CLR,,0.00,WeatherDisplay:10.37,2013-04-30 15:36:00,
2013-04-30 11:41:00,71.1,62.7,30.08,North,0,2.3,0.0,75,0.00,CLR,,0.00,WeatherDisplay:10.37,2013-04-30 15:41:00,
2013-04-30 11:46:00,72.0,63.2,30.08,North,0,4.6,0.0,74,0.00,CLR,,0.00,WeatherDisplay:10.37,2013-04-30 15:46:00,
2013-04-30 11:51:00,72.5,63.0,30.08,SW,225,4.6,4.6,72,0.00,CLR,,0.00,WeatherDisplay:10.37,2013-04-30 15:51:00,
2013-04-30 11:56:00,72.7,63.1,30.08,SW,225,8.1,8.1,72,0.00,CLR,,0.00,WeatherDisplay:10.37,2013-04-30 15:56:00,
2013-04-30 12:01:00,72.9,62.9,30.07,SW,225,6.9,6.9,71,0.00,CLR,,0.00,WeatherDisplay:10.37,2013-04-30 16:01:00,
2013-04-30 12:06:00,73.4,63.8,30.07,NE,45,5.8,5.8,72,0.00,CLR,,0.00,WeatherDisplay:10.37,2013-04-30 16:06:00,
2013-04-30 12:11:00,73.6,63.6,30.07,SW,225,6.9,6.9,71,0.00,CLR,,0.00,WeatherDisplay:10.37,2013-04-30 16:11:00,
2013-04-30 12:16:00,74.1,63.7,30.07,NE,45,5.8,5.8,70,0.00,CLR,,0.00,WeatherDisplay:10.37,2013-04-30 16:16:00,
2013-04-30 12:21:00,74.5,63.6,30.06,South,180,5.8,5.8,69,0.00,CLR,,0.00,WeatherDisplay:10.37,2013-04-30 16:21:00,
2013-04-30 12:26:00,75.0,63.7,30.06,SE,135,4.6,4.6,68,0.00,CLR,,0.00,WeatherDisplay:10.37,2013-04-30 16:26:00,
2013-04-30 12:31:00,75.4,64.1,30.06,West,270,5.8,5.8,68,0.00,CLR,,0.00,WeatherDisplay:10.37,2013-04-30 16:31:00,
2013-04-30 12:36:00,75.9,63.3,30.06,NW,315,5.8,5.8,65,0.00,CLR,,0.00,WeatherDisplay:10.37,2013-04-30 16:36:00,
2013-04-30 12:41:00,76.1,63.0,30.06,SW,225,6.9,6.9,64,0.00,CLR,,0.00,WeatherDisplay:10.37,2013-04-30 16:41:00,
2013-04-30 12:46:00,76.5,63.8,30.05,East,90,5.8,5.8,65,0.00,CLR,,0.00,WeatherDisplay:10.37,2013-04-30 16:46:00,
2013-04-30 12:51:00,75.4,62.4,30.05,NNW,338,6.9,0.0,64,0.00,CLR,,0.00,WeatherDisplay:10.37,2013-04-30 16:51:00,
2013-04-30 12:56:00,75.7,63.1,30.05,SW,225,5.8,5.8,65,0.00,CLR,,0.00,WeatherDisplay:10.37,2013-04-30 16:56:00,
2013-04-30 13:01:00,76.1,63.0,30.05,SW,225,6.9,0.0,64,0.00,CLR,,0.00,WeatherDisplay:10.37,2013-04-30 17:01:00,
2013-04-30 13:06:00,76.8,63.3,30.04,South,180,6.9,6.9,63,0.00,CLR,,0.00,WeatherDisplay:10.37,2013-04-30 17:06:00,
2013-04-30 13:11:00,76.8,63.3,30.04,North,0,5.8,5.8,63,0.00,CLR,,0.00,WeatherDisplay:10.37,2013-04-30 17:11:00,
2013-04-30 13:16:00,75.7,61.3,30.04,West,270,8.1,0.0,61,0.00,CLR,,0.00,WeatherDisplay:10.37,2013-04-30 17:16:00,
2013-04-30 13:21:00,75.7,62.2,30.04,NE,45,5.8,5.8,63,0.00,CLR,,0.00,WeatherDisplay:10.37,2013-04-30 17:21:00,
2013-04-30 13:26:00,76.3,62.3,30.04,SW,225,8.4,8.4,62,0.00,CLR,,0.00,WeatherDisplay:10.37,2013-04-30 17:26:00,
2013-04-30 13:31:00,76.3,62.3,30.03,West,270,6.9,6.9,62,0.00,CLR,,0.00,WeatherDisplay:10.37,2013-04-30 17:31:00,
2013-04-30 13:36:00,76.3,61.4,30.03,South,180,10.4,10.4,60,0.00,CLR,,0.00,WeatherDisplay:10.37,2013-04-30 17:36:00,
2013-04-30 13:41:00,76.1,63.0,30.03,SE,135,2.3,0.0,64,0.00,CLR,,0.00,WeatherDisplay:10.37,2013-04-30 17:41:00,
2013-04-30 13:46:00,76.3,62.3,30.03,NW,315,2.3,2.3,62,0.00,CLR,,0.00,WeatherDisplay:10.37,2013-04-30 17:46:00,
2013-04-30 13:51:00,76.6,63.5,30.03,SW,225,2.3,2.3,64,0.00,CLR,,0.00,WeatherDisplay:10.37,2013-04-30 17:51:00,
2013-04-30 13:56:00,77.4,62.9,30.03,WNW,292,5.8,5.8,61,0.00,CLR,,0.00,WeatherDisplay:10.37,2013-04-30 17:56:00,
2013-04-30 14:01:00,77.5,63.5,30.03,East,90,2.3,2.3,62,0.00,CLR,,0.00,WeatherDisplay:10.37,2013-04-30 18:01:00,
2013-04-30 14:06:00,78.4,63.4,30.03,SW,225,10.4,10.4,60,0.00,CLR,,0.00,WeatherDisplay:10.37,2013-04-30 18:06:00,
2013-04-30 14:11:00,78.8,63.3,30.03,South,180,5.8,5.8,59,0.00,CLR,,0.00,WeatherDisplay:10.37,2013-04-30 18:11:00,
2013-04-30 14:16:00,78.8,61.8,30.03,South,180,10.4,10.4,56,0.00,CLR,,0.00,WeatherDisplay:10.37,2013-04-30 18:16:00,
2013-04-30 14:21:00,78.8,61.8,30.03,East,90,2.3,2.7,56,0.00,CLR,,0.00,WeatherDisplay:10.37,2013-04-30 18:21:00,
2013-04-30 14:26:00,78.8,62.3,30.03,South,180,6.9,6.9,57,0.00,CLR,,0.00,WeatherDisplay:10.37,2013-04-30 18:26:00,
2013-04-30 14:31:00,79.2,62.6,30.03,East,90,4.6,5.7,57,0.00,CLR,,0.00,WeatherDisplay:10.37,2013-04-30 18:31:00,
2013-04-30 14:36:00,78.3,62.3,30.03,SW,225,2.3,0.0,58,0.00,CLR,,0.00,WeatherDisplay:10.37,2013-04-30 18:36:00,
2013-04-30 14:41:00,78.4,62.9,30.03,West,270,6.9,6.9,59,0.00,CLR,,0.00,WeatherDisplay:10.37,2013-04-30 18:41:00,
2013-04-30 14:46:00,78.8,62.3,30.03,SW,225,5.8,5.8,57,0.00,CLR,,0.00,WeatherDisplay:10.37,2013-04-30 18:46:00,
2013-04-30 14:51:00,78.6,61.6,30.03,South,180,8.1,8.1,56,0.00,CLR,,0.00,WeatherDisplay:10.37,2013-04-30 18:51:00,
2013-04-30 14:56:00,78.8,61.8,30.02,SE,135,6.9,6.9,56,0.00,CLR,,0.00,WeatherDisplay:10.37,2013-04-30 18:56:00,
2013-04-30 15:01:00,79.0,61.9,30.02,SE,135,2.3,2.3,56,0.00,CLR,,0.00,WeatherDisplay:10.37,2013-04-30 19:01:00,
2013-04-30 15:06:00,78.4,61.4,30.02,NE,45,4.6,4.6,56,0.00,CLR,,0.00,WeatherDisplay:10.37,2013-04-30 19:06:00,
2013-04-30 15:11:00,78.8,62.3,30.01,SSW,202,7.0,7.0,57,0.00,CLR,,0.00,WeatherDisplay:10.37,2013-04-30 19:11:00,
2013-04-30 15:16:00,79.3,62.3,30.01,SW,225,6.9,7.0,56,0.00,CLR,,0.00,WeatherDisplay:10.37,2013-04-30 19:16:00,
2013-04-30 15:21:00,79.7,61.6,30.01,South,180,5.8,5.8,54,0.00,CLR,,0.00,WeatherDisplay:10.37,2013-04-30 19:21:00,
2013-04-30 15:26:00,79.7,62.1,30.01,NW,315,4.6,0.0,55,0.00,CLR,,0.00,WeatherDisplay:10.37,2013-04-30 19:26:00,
2013-04-30 15:31:00,80.1,62.4,30.02,North,0,5.8,5.8,55,0.00,CLR,,0.00,WeatherDisplay:10.37,2013-04-30 19:31:00,
2013-04-30 15:36:00,80.2,62.6,30.02,West,270,8.1,8.1,55,0.00,CLR,,0.00,WeatherDisplay:10.37,2013-04-30 19:36:00,
2013-04-30 15:41:00,80.6,62.4,30.02,South,180,4.6,4.6,54,0.00,CLR,,0.00,WeatherDisplay:10.37,2013-04-30 19:41:00,
2013-04-30 15:46:00,80.8,62.1,30.01,North,0,6.9,0.0,53,0.00,CLR,,0.00,WeatherDisplay:10.37,2013-04-30 19:46:00,
2013-04-30 15:51:00,80.8,62.6,30.01,NW,315,8.1,8.1,54,0.00,CLR,,0.00,WeatherDisplay:10.37,2013-04-30 19:51:00,
2013-04-30 15:56:00,81.0,62.7,30.01,SW,225,8.1,8.1,54,0.00,CLR,,0.00,WeatherDisplay:10.37,2013-04-30 19:56:00,
2013-04-30 16:01:00,80.6,62.4,30.01,West,270,4.6,4.6,54,0.00,CLR,,0.00,WeatherDisplay:10.37,2013-04-30 20:01:00,
2013-04-30 16:06:00,79.5,60.9,30.01,West,270,5.8,0.0,53,0.00,CLR,,0.00,WeatherDisplay:10.37,2013-04-30 20:06:00,
2013-04-30 16:11:00,79.5,62.4,30.01,East,90,10.4,10.4,56,0.00,CLR,,0.00,WeatherDisplay:10.37,2013-04-30 20:11:00,
2013-04-30 16:16:00,80.1,61.9,30.01,SE,135,6.9,6.9,54,0.00,CLR,,0.00,WeatherDisplay:10.37,2013-04-30 20:16:00,
2013-04-30 16:21:00,79.3,60.7,30.01,East,90,16.1,16.1,53,0.00,CLR,,0.00,WeatherDisplay:10.37,2013-04-30 20:21:00,
2013-04-30 16:26:00,79.5,61.4,30.00,SW,225,11.5,11.5,54,0.00,CLR,,0.00,WeatherDisplay:10.37,2013-04-30 20:26:00,
2013-04-30 16:31:00,79.7,62.1,30.00,SW,225,5.8,5.8,55,0.00,CLR,,0.00,WeatherDisplay:10.37,2013-04-30 20:31:00,
2013-04-30 16:36:00,80.2,61.6,30.00,SW,225,13.8,13.8,53,0.00,CLR,,0.00,WeatherDisplay:10.37,2013-04-30 20:36:00,
2013-04-30 16:41:00,80.2,61.6,30.00,NW,315,5.8,0.0,53,0.00,CLR,,0.00,WeatherDisplay:10.37,2013-04-30 20:41:00,
2013-04-30 16:46:00,80.1,60.8,30.00,South,180,12.7,12.7,52,0.00,CLR,,0.00,WeatherDisplay:10.37,2013-04-30 20:46:00,
2013-04-30 16:51:00,79.9,61.2,30.00,SW,225,4.6,4.6,53,0.00,CLR,,0.00,WeatherDisplay:10.37,2013-04-30 20:51:00,
2013-04-30 16:56:00,80.2,62.1,30.00,SW,225,5.8,5.8,54,0.00,CLR,,0.00,WeatherDisplay:10.37,2013-04-30 20:56:00,
2013-04-30 17:01:00,80.4,61.7,30.00,NW,315,2.3,2.3,53,0.00,CLR,,0.00,WeatherDisplay:10.37,2013-04-30 21:01:00,
2013-04-30 17:06:00,80.6,61.3,30.00,SW,225,6.9,6.9,52,0.00,CLR,,0.00,WeatherDisplay:10.37,2013-04-30 21:06:00,
2013-04-30 17:11:00,80.2,61.0,30.00,SW,225,6.9,6.9,52,0.00,CLR,,0.00,WeatherDisplay:10.37,2013-04-30 21:11:00,
2013-04-30 17:16:00,80.1,60.8,29.99,SE,135,8.1,8.1,52,0.00,CLR,,0.00,WeatherDisplay:10.37,2013-04-30 21:16:00,
2013-04-30 17:21:00,79.7,61.1,30.00,West,270,4.6,4.6,53,0.00,CLR,,0.00,WeatherDisplay:10.37,2013-04-30 21:21:00,
2013-04-30 17:26:00,79.7,61.1,30.00,South,180,5.8,5.8,53,0.00,CLR,,0.00,WeatherDisplay:10.37,2013-04-30 21:26:00,
2013-04-30 17:31:00,79.5,60.9,29.99,South,180,6.9,6.9,53,0.00,CLR,,0.00,WeatherDisplay:10.37,2013-04-30 21:31:00,
2013-04-30 17:36:00,79.2,60.0,30.00,SW,225,10.4,10.4,52,0.00,CLR,,0.00,WeatherDisplay:10.37,2013-04-30 21:36:00,
2013-04-30 17:41:00,79.0,60.4,30.00,SW,225,8.1,8.1,53,0.00,CLR,,0.00,WeatherDisplay:10.37,2013-04-30 21:41:00,
2013-04-30 17:46:00,79.0,60.4,30.00,SE,135,4.6,4.6,53,0.00,CLR,,0.00,WeatherDisplay:10.37,2013-04-30 21:46:00,
2013-04-30 17:51:00,78.8,60.2,30.00,South,180,4.6,4.6,53,0.00,CLR,,0.00,WeatherDisplay:10.37,2013-04-30 21:51:00,
2013-04-30 17:56:00,78.6,60.6,30.00,South,180,5.8,5.8,54,0.00,CLR,,0.00,WeatherDisplay:10.37,2013-04-30 21:56:00,
2013-04-30 18:01:00,78.4,60.9,30.00,SE,135,4.6,4.6,55,0.00,CLR,,0.00,WeatherDisplay:10.37,2013-04-30 22:01:00,
2013-04-30 18:06:00,78.3,60.2,30.00,South,180,6.9,6.9,54,0.00,CLR,,0.00,WeatherDisplay:10.37,2013-04-30 22:06:00,
2013-04-30 18:11:00,78.3,60.8,30.00,South,180,4.6,4.6,55,0.00,CLR,,0.00,WeatherDisplay:10.37,2013-04-30 22:11:00,
2013-04-30 18:16:00,78.3,60.8,30.00,SW,225,4.6,4.6,55,0.00,CLR,,0.00,WeatherDisplay:10.37,2013-04-30 22:16:00,
2013-04-30 18:21:00,78.1,61.1,30.00,SE,135,5.8,5.8,56,0.00,CLR,,0.00,WeatherDisplay:10.37,2013-04-30 22:21:00,
2013-04-30 18:26:00,78.1,61.1,30.00,East,90,2.7,2.7,56,0.00,CLR,,0.00,WeatherDisplay:10.37,2013-04-30 22:26:00,
2013-04-30 18:31:00,77.7,61.3,30.00,SW,225,2.3,2.3,57,0.00,CLR,,0.00,WeatherDisplay:10.37,2013-04-30 22:31:00,
2013-04-30 18:36:00,77.5,61.6,30.00,SE,135,8.1,8.1,58,0.00,CLR,,0.00,WeatherDisplay:10.37,2013-04-30 22:36:00,
2013-04-30 18:41:00,77.4,61.9,30.00,SW,225,5.8,5.8,59,0.00,CLR,,0.00,WeatherDisplay:10.37,2013-04-30 22:41:00,
2013-04-30 18:46:00,77.2,61.7,30.00,South,180,4.6,0.0,59,0.00,CLR,,0.00,WeatherDisplay:10.37,2013-04-30 22:46:00,
2013-04-30 18:51:00,77.2,62.7,30.01,South,180,5.8,5.8,61,0.00,CLR,,0.00,WeatherDisplay:10.37,2013-04-30 22:51:00,
2013-04-30 18:56:00,77.0,62.5,30.01,NW,315,2.3,0.0,61,0.00,CLR,,0.00,WeatherDisplay:10.37,2013-04-30 22:56:00,
2013-04-30 19:01:00,76.8,63.7,30.00,SW,225,2.7,2.7,64,0.00,CLR,,0.00,WeatherDisplay:10.37,2013-04-30 23:01:00,
2013-04-30 19:06:00,76.5,62.5,30.00,West,270,0.0,0.0,62,0.00,CLR,,0.00,WeatherDisplay:10.37,2013-04-30 23:06:00,
2013-04-30 19:11:00,75.7,63.1,30.00,West,270,0.0,0.0,65,0.00,CLR,,0.00,WeatherDisplay:10.37,2013-04-30 23:11:00,
2013-04-30 19:16:00,75.6,63.0,30.00,SW,225,0.0,0.0,65,0.00,CLR,,0.00,WeatherDisplay:10.37,2013-04-30 23:16:00,
2013-04-30 19:21:00,74.5,63.6,30.00,NW,315,2.3,0.0,69,0.00,CLR,,0.00,WeatherDisplay:10.37,2013-04-30 23:21:00,
2013-04-30 19:26:00,73.9,63.5,30.00,NW,315,0.0,0.0,70,0.00,CLR,,0.00,WeatherDisplay:10.37,2013-04-30 23:26:00,
2013-04-30 19:31:00,73.4,63.4,30.00,NW,315,0.0,0.0,71,0.00,CLR,,0.00,WeatherDisplay:10.37,2013-04-30 23:31:00,
2013-04-30 19:36:00,72.9,62.9,30.00,NW,315,0.0,0.0,71,0.00,CLR,,0.00,WeatherDisplay:10.37,2013-04-30 23:36:00,
2013-04-30 19:41:00,72.3,63.2,30.00,NW,315,0.0,0.0,73,0.00,CLR,,0.00,WeatherDisplay:10.37,2013-04-30 23:41:00,
2013-04-30 19:46:00,71.8,63.4,30.01,NW,315,0.0,0.0,75,0.00,CLR,,0.00,WeatherDisplay:10.37,2013-04-30 23:46:00,
2013-04-30 19:51:00,71.4,63.8,30.01,NW,315,0.0,0.0,77,0.00,CLR,,0.00,WeatherDisplay:10.37,2013-04-30 23:51:00,
2013-04-30 19:56:00,70.7,64.2,30.01,NW,315,0.0,0.0,80,0.00,CLR,,0.00,WeatherDisplay:10.37,2013-04-30 23:56:00,
2013-04-30 20:01:00,70.3,64.6,30.00,NW,315,0.0,0.0,82,0.00,CLR,,0.00,WeatherDisplay:10.37,2013-05-01 00:01:00,
2013-04-30 20:06:00,69.8,64.4,30.00,NW,315,0.0,0.0,83,0.00,CLR,,0.00,WeatherDisplay:10.37,2013-05-01 00:06:00,
2013-04-30 20:11:00,69.3,64.2,30.01,NW,315,0.0,0.0,84,0.00,CLR,,0.00,WeatherDisplay:10.37,2013-05-01 00:11:00,
2013-04-30 20:16:00,69.1,64.0,30.01,NW,315,0.0,0.0,84,0.00,CLR,,0.00,WeatherDisplay:10.37,2013-05-01 00:16:00,
2013-04-30 20:21:00,68.4,63.7,30.02,NW,315,0.0,0.0,85,0.00,CLR,,0.00,WeatherDisplay:10.37,2013-05-01 00:21:00,
2013-04-30 20:26:00,68.0,63.3,30.02,NW,315,0.0,0.0,85,0.00,CLR,,0.00,WeatherDisplay:10.37,2013-05-01 00:26:00,
2013-04-30 20:31:00,67.5,63.1,30.02,NW,315,0.0,0.0,86,0.00,CLR,,0.00,WeatherDisplay:10.37,2013-05-01 00:31:00,
2013-04-30 20:36:00,67.1,63.1,30.02,NW,315,0.0,0.0,87,0.00,CLR,,0.00,WeatherDisplay:10.37,2013-05-01 00:36:00,
2013-04-30 20:41:00,66.6,62.9,30.02,NW,315,0.0,0.0,88,0.00,CLR,,0.00,WeatherDisplay:10.37,2013-05-01 00:41:00,
2013-04-30 20:46:00,66.2,62.5,30.03,NW,315,0.0,0.0,88,0.00,CLR,,0.00,WeatherDisplay:10.37,2013-05-01 00:46:00,
2013-04-30 20:51:00,65.8,62.8,30.02,NW,315,0.0,0.0,90,0.00,CLR,,0.00,WeatherDisplay:10.37,2013-05-01 00:51:00,
2013-04-30 20:56:00,65.5,62.5,30.03,NW,315,0.0,0.0,90,0.00,CLR,,0.00,WeatherDisplay:10.37,2013-05-01 00:56:00,
2013-04-30 21:01:00,64.9,61.6,30.03,NW,315,0.0,0.0,89,0.00,CLR,,0.00,WeatherDisplay:10.37,2013-05-01 01:01:00,
2013-04-30 21:06:00,64.8,61.4,30.04,NW,315,0.0,0.0,89,0.00,CLR,,0.00,WeatherDisplay:10.37,2013-05-01 01:06:00,
2013-04-30 21:11:00,64.4,61.4,30.03,NW,315,0.0,0.0,90,0.00,CLR,,0.00,WeatherDisplay:10.37,2013-05-01 01:11:00,
2013-04-30 21:16:00,64.2,61.5,30.04,NW,315,0.0,0.0,91,0.00,CLR,,0.00,WeatherDisplay:10.37,2013-05-01 01:16:00,
2013-04-30 21:21:00,63.9,61.2,30.04,NW,315,0.0,0.0,91,0.00,CLR,,0.00,WeatherDisplay:10.37,2013-05-01 01:21:00,
2013-04-30 21:26:00,63.7,61.0,30.04,NW,315,0.0,0.0,91,0.00,CLR,,0.00,WeatherDisplay:10.37,2013-05-01 01:26:00,
2013-04-30 21:31:00,63.3,60.6,30.04,NW,315,0.0,0.0,91,0.00,CLR,,0.00,WeatherDisplay:10.37,2013-05-01 01:31:00,
2013-04-30 21:36:00,63.1,60.8,30.04,NW,315,0.0,0.0,92,0.00,CLR,,0.00,WeatherDisplay:10.37,2013-05-01 01:36:00,
2013-04-30 21:41:00,63.0,60.6,30.04,NW,315,0.0,0.0,92,0.00,CLR,,0.00,WeatherDisplay:10.37,2013-05-01 01:41:00,
2013-04-30 21:46:00,62.8,60.4,30.04,NW,315,0.0,0.0,92,0.00,CLR,,0.00,WeatherDisplay:10.37,2013-05-01 01:46:00,
2013-04-30 21:51:00,62.6,60.2,30.05,NW,315,0.0,0.0,92,0.00,CLR,,0.00,WeatherDisplay:10.37,2013-05-01 01:51:00,
2013-04-30 21:56:00,62.2,60.2,30.05,NW,315,0.0,0.0,93,0.00,CLR,,0.00,WeatherDisplay:10.37,2013-05-01 01:56:00,
2013-04-30 22:01:00,62.1,60.3,30.05,NW,315,0.0,0.0,94,0.00,CLR,,0.00,WeatherDisplay:10.37,2013-05-01 02:01:00,
2013-04-30 22:06:00,61.9,60.1,30.06,NW,315,0.0,0.0,94,0.00,CLR,,0.00,WeatherDisplay:10.37,2013-05-01 02:06:00,
2013-04-30 22:11:00,61.7,60.0,30.06,NW,315,0.0,0.0,94,0.00,CLR,,0.00,WeatherDisplay:10.37,2013-05-01 02:11:00,
2013-04-30 22:16:00,61.5,59.8,30.06,NW,315,0.0,0.0,94,0.00,CLR,,0.00,WeatherDisplay:10.37,2013-05-01 02:16:00,
2013-04-30 22:21:00,61.5,59.8,30.06,NW,315,0.0,0.0,94,0.00,CLR,,0.00,WeatherDisplay:10.37,2013-05-01 02:21:00,
2013-04-30 22:26:00,61.3,59.6,30.06,NW,315,0.0,0.0,94,0.00,CLR,,0.00,WeatherDisplay:10.37,2013-05-01 02:26:00,
2013-04-30 22:31:00,61.2,59.4,30.06,NW,315,0.0,0.0,94,0.00,CLR,,0.00,WeatherDisplay:10.37,2013-05-01 02:31:00,
2013-04-30 22:36:00,61.0,59.2,30.06,NW,315,0.0,0.0,94,0.00,CLR,,0.00,WeatherDisplay:10.37,2013-05-01 02:36:00,
2013-04-30 22:41:00,61.0,59.5,30.07,NW,315,0.0,0.0,95,0.00,CLR,,0.00,WeatherDisplay:10.37,2013-05-01 02:41:00,
2013-04-30 22:46:00,60.8,59.4,30.07,NW,315,0.0,0.0,95,0.00,CLR,,0.00,WeatherDisplay:10.37,2013-05-01 02:46:00,
2013-04-30 22:51:00,60.6,59.5,30.07,NW,315,0.0,0.0,96,0.00,CLR,,0.00,WeatherDisplay:10.37,2013-05-01 02:51:00,
2013-04-30 22:56:00,60.4,59.3,30.07,NW,315,0.0,0.0,96,0.00,CLR,,0.00,WeatherDisplay:10.37,2013-05-01 02:56:00,
2013-04-30 23:01:00,60.4,59.3,30.07,NW,315,0.0,0.0,96,0.00,CLR,,0.00,WeatherDisplay:10.37,2013-05-01 03:01:00,
2013-04-30 23:06:00,60.3,59.1,30.07,NW,315,0.0,0.0,96,0.00,CLR,,0.00,WeatherDisplay:10.37,2013-05-01 03:06:00,
2013-04-30 23:11:00,60.1,58.9,30.07,NW,315,0.0,0.0,96,0.00,CLR,,0.00,WeatherDisplay:10.37,2013-05-01 03:11:00,
2013-04-30 23:16:00,60.1,58.9,30.08,NW,315,0.0,0.0,96,0.00,CLR,,0.00,WeatherDisplay:10.37,2013-05-01 03:16:00,
2013-04-30 23:21:00,59.9,59.0,30.07,NW,315,0.0,0.0,97,0.00,CLR,,0.00,WeatherDisplay:10.37,2013-05-01 03:21:00,
2013-04-30 23:26:00,59.7,58.9,30.08,NW,315,0.0,0.0,97,0.00,CLR,,0.00,WeatherDisplay:10.37,2013-05-01 03:26:00,
2013-04-30 23:31:00,59.7,58.9,30.08,NW,315,0.0,0.0,97,0.00,CLR,,0.00,WeatherDisplay:10.37,2013-05-01 03:31:00,
2013-04-30 23:36:00,59.5,58.7,30.08,NW,315,0.0,0.0,97,0.00,CLR,,0.00,WeatherDisplay:10.37,2013-05-01 03:36:00,
2013-04-30 23:41:00,59.5,58.7,30.08,NW,315,0.0,0.0,97,0.00,CLR,,0.00,WeatherDisplay:10.37,2013-05-01 03:41:00,
2013-04-30 23:46:00,59.5,58.7,30.08,NW,315,0.0,0.0,97,0.00,CLR,,0.00,WeatherDisplay:10.37,2013-05-01 03:46:00,
2013-04-30 23:51:00,59.5,58.7,30.08,NW,315,0.0,0.0,97,0.00,CLR,,0.00,WeatherDisplay:10.37,2013-05-01 03:51:00,
2013-04-30 23:56:00,59.2,58.3,30.08,NW,315,0.0,0.0,97,0.00,CLR,,0.00,WeatherDisplay:10.37,2013-05-01 03:56:00,